DW3636 Weather Reports


time (UTC)temp
F
wind
direction
speed
knots
gust
knots
rain 1hr
in
rain 24hr
in
rain mn
in
humidity
%
barometer
mb
20200531081540 74 81 0.0 0.9 0.00 0.00 0.00 93 1016.4
20200531080141 75 81 0.0 0.0 0.00 0.00 0.00 93 1016.4
20200531074550 75 81 0.0 0.0 0.00 0.00 0.00 93 1016.3
20200531073114 75 80 0.0 0.0 0.00 0.00 0.00 93 1016.4
20200531071612 75 81 0.0 0.0 0.00 0.00 0.00 92 1016.4
20200531070100 75 80 0.0 1.7 0.00 0.00 0.00 92 1016.5
20200531064615 76 81 0.0 2.6 0.00 0.00 0.00 92 1016.7
20200531063046 76 80 0.0 1.7 0.00 0.00 0.00 92 1016.7
20200531061542 76 81 0.9 2.6 0.00 0.00 0.00 91 1016.8
20200531060024 76 81 0.0 1.7 0.00 0.00 0.00 90 1017.0
20200531054553 76 81 0.0 2.6 0.00 0.00 0.00 89 1017.1
20200531053105 76 81 0.9 1.7 0.00 0.00 0.00 89 1017.3
20200531051520 75 80 0.0 0.9 0.00 0.00 0.00 89 1017.4
20200531050023 76 81 0.0 1.7 0.00 0.00 0.00 89 1017.6
20200531044519 76 81 0.0 2.6 0.00 0.00 0.00 88 1017.7
20200531043010 76 81 0.0 2.6 0.00 0.00 0.00 87 1018.0
20200531041554 77 81 0.0 3.5 0.00 0.00 0.00 86 1018.2
20200531040006 77 83 0.9 6.1 0.00 0.00 0.00 87 1018.5
20200531034516 78 84 0.0 0.0 0.00 0.00 0.00 86 1018.4
20200531033004 77 84 0.9 3.5 0.00 0.00 0.00 86 1018.4
20200531031505 77 86 0.9 3.5 0.00 0.00 0.00 85 1018.4
20200531030008 77 86 0.9 5.2 0.00 0.00 0.00 82 1018.3
20200531024502 77 63 2.6 6.1 0.00 0.00 0.00 83 1017.7
20200531023009 77 118 1.7 5.2 0.00 0.00 0.00 83 1017.5
20200531021752 77 90 0.9 5.2 0.00 0.00 0.00 82 1017.7
20200531021502 77 90 1.7 5.2 0.00 0.00 0.00 82 1017.6
20200531014700 78 48 0.9 3.5 0.00 0.00 0.00 82 1017.9
20200531013401 78 76 0.9 5.2 0.00 0.00 0.00 82 1017.7
20200531011647 78 15 0.0 1.7 0.00 0.00 0.00 81 1017.4
20200531010158 79 113 1.7 4.3 0.00 0.00 0.00 79 1017.6
20200531004810 79 69 0.9 2.6 0.00 0.00 0.00 79 1017.3
20200531003206 79 88 0.9 3.5 0.00 0.00 0.00 78 1017.1
20200531001645 79 81 0.9 3.5 0.00 0.00 0.00 79 1017.0
20200531000203 79 71 2.6 7.8 0.00 0.00 0.00 79 1016.9
20200530234921 82 107 4.3 9.6 0.00 0.00 0.00 76 1016.6
20200530233105 84 279 1.7 8.7 0.00 0.00 0.00 79 1016.2
20200530231613 84 275 2.6 7.8 0.00 0.00 0.00 78 1015.7
20200530230106 84 266 2.6 7.8 0.00 0.00 0.00 79 1015.4
20200530224640 85 244 4.3 7.8 0.00 0.05 0.00 78 1015.5
20200530223127 85 351 2.6 8.7 0.00 0.05 0.00 77 1015.5
20200530221617 85 282 3.5 8.7 0.00 0.05 0.00 78 1015.3
20200530220200 85 252 5.2 8.7 0.00 0.05 0.00 75 1015.4
20200530214746 86 246 5.2 12.2 0.00 0.13 0.00 74 1015.2
20200530213119 87 266 2.6 11.3 0.00 0.13 0.00 75 1015.4
20200530211607 86 273 4.3 10.4 0.00 0.13 0.00 74 1015.4
20200530210110 87 304 4.3 10.4 0.00 0.13 0.00 74 1015.6
20200530204741 86 263 7.0 12.2 0.00 0.13 0.00 74 1015.5
20200530203203 87 244 4.3 10.4 0.00 0.13 0.00 73 1015.8
20200530201642 87 254 6.1 12.2 0.00 0.13 0.00 72 1015.7
20200530200111 88 222 5.2 15.6 0.00 0.13 0.00 72 1015.9
20200530194548 88 298 7.0 13.9 0.00 0.13 0.00 70 1015.8
20200530193048 88 285 3.5 11.3 0.00 0.13 0.00 71 1016.1
20200530191614 89 327 5.2 13.0 0.00 0.13 0.00 69 1016.1
20200530190144 89 265 4.3 11.3 0.00 0.13 0.00 69 1016.1
20200530184615 89 185 5.2 13.0 0.00 0.13 0.00 67 1016.2
20200530183052 89 272 5.2 13.0 0.00 0.13 0.00 68 1016.4
20200530181728 89 252 4.3 13.0 0.00 0.13 0.00 67 1016.7
20200530180105 90 143 3.5 8.7 0.00 0.13 0.00 65 1016.6
20200530174531 89 108 5.2 9.6 0.00 0.13 0.00 66 1016.9
20200530173048 89 141 4.3 9.6 0.00 0.13 0.00 66 1016.9
20200530171631 89 164 4.3 7.8 0.00 0.13 0.00 66 1017.1
20200530164524 88 155 5.2 8.7 0.00 0.13 0.00 66 1017.4
20200530163028 88 146 1.7 5.2 0.00 0.13 0.00 68 1017.6
20200530161512 87 129 2.6 8.7 0.00 0.13 0.00 70 1017.7
20200530160011 87 131 3.5 7.0 0.00 0.13 0.00 69 1017.9
20200530154516 87 165 1.7 9.6 0.00 0.13 0.00 71 1017.8
20200530153009 85 177 3.5 10.4 0.00 0.13 0.00 74 1018.1
20200530150215 84 121 5.2 9.6 0.00 0.13 0.00 76 1018.1
20200530144748 84 117 4.3 9.6 0.00 0.13 0.00 78 1018.1
20200530143058 84 178 3.5 8.7 0.00 0.13 0.00 78 1018.2
20200530141617 84 126 2.6 8.7 0.00 0.13 0.00 79 1018.1
20200530140111 83 130 2.6 7.8 0.00 0.13 0.00 82 1018.2
20200530134655 82 117 2.6 6.1 0.00 0.13 0.00 84 1018.3
20200530133105 82 125 4.3 7.8 0.00 0.13 0.00 83 1018.3
20200530131553 81 139 3.5 7.0 0.00 0.13 0.00 84 1018.5
20200530130050 81 118 1.7 5.2 0.00 0.13 0.00 85 1018.5
20200530124601 80 96 1.7 3.5 0.00 0.13 0.00 86 1018.4
20200530123043 79 74 2.6 5.2 0.00 0.13 0.00 87 1018.4
20200530121522 79 106 0.9 5.2 0.00 0.13 0.00 88 1018.4
20200530120030 78 111 0.9 3.5 0.00 0.13 0.00 90 1018.4
20200530114513 77 122 0.9 2.6 0.00 0.13 0.00 92 1018.3
20200530113007 77 122 0.0 0.0 0.00 0.13 0.00 94 1018.0
20200530111511 76 122 0.0 0.0 0.00 0.13 0.00 95 1017.9
20200530110335 75 122 0.0 0.0 0.00 0.13 0.00 95 1017.8
20200530104628 76 122 0.0 0.0 0.00 0.13 0.00 95 1017.7
20200530103319 76 122 0.0 0.0 0.00 0.13 0.00 95 1017.4
20200530100121 76 122 0.0 0.9 0.00 0.13 0.00 95 1017.2
20200530094604 76 122 0.0 1.7 0.00 0.13 0.00 95 1017.1
20200530093125 76 122 0.0 1.7 0.00 0.13 0.00 95 1017.1
20200530091757 75 122 0.0 1.7 0.00 0.13 0.00 95 1017.0
20200530090127 75 122 0.0 0.0 0.00 0.13 0.00 95 1016.9
20200530084646 76 122 0.0 0.0 0.00 0.13 0.00 94 1017.1
20200530083209 76 122 0.0 0.0 0.00 0.13 0.00 94 1017.0